{"data":{"norad_id":66932,"epoch":"2026-09-20T11:18:25.376256Z","epoch_age_seconds":86930,"freshness":"FRESH","line1":"1 66932U 25286H   26263.47112704  .00023917  00000+0  71575-3 0  9993","line2":"2 66932  53.1593 169.8174 0001131  63.6629 296.4490 15.34443427 45299","mean_motion":15.34443427,"eccentricity":0.0001131,"inclination_deg":53.1593,"raan_deg":169.8174,"arg_perigee_deg":63.6629,"mean_anomaly_deg":296.449,"bstar":0.00071575,"rev_number":4529,"period_min":93.845102052107,"perigee_km":461.80048462223,"apogee_km":463.34785348867,"semimajor_km":6840.7111690554,"source":"CELESTRAK","updated_at":"2026-09-21T09:00:36.057017Z"}}